Вернуться в каталог

THOR AGENA D R/B

АктивенPO
NORAD 815·ROCKET BODY·🇺🇸 United States

Запущен Jun 18, 1964 с Vandenberg Space Force Base

Loading…

Ближайшие Пролёты (ближайшие 24 часа)

TLE

СвежийSource: Space-Track

Эпоха: Sep 14, 2026, 06:44 UTC

1 00815U 64031C   26257.28062664  .00000104  00000-0  63127-4 0  9992
2 00815  99.8316 218.7373 0012291  49.4029 310.8216 14.28533559233729

Отслеживайте THOR AGENA D R/B в реальном времени с AllMySat

Download on the App Store